Tracking 26911 objects as of 8-Feb-2023
HD Live streaming from Space Station
objects crossing your sky now

DMSP 5D-3 F19 DEB

Track DMSP 5D-3 F19 DEB now!
10-day predictions


NORAD ID: 39632
Int'l Code: 2014-015C
Perigee: 832.9 km
Apogee: 841.1 km
Inclination: 98.7 °
Period: 101.5 minutes
Semi major axis: 7207 km
RCS: Unknown
Launch date: April 3, 2014
Source: United States (US)
Launch site: AIR FORCE WESTERN TEST RANGE (AFWTR)

Note: This is SATELLITE DEBRIS
Your satellite tracking list
Your tracking list is empty




NASA's NSSDC Master Catalog

Two Line Element Set (TLE):
1 39632U 14015C   23038.93153331  .00002272  00000-0  11162-2 0  9994
2 39632  98.6938  53.7012 0005729  79.3231 280.8589 14.18673500457566
Source of the keplerian elements: AFSPC